Station Historical Data
Daily Summary for October 25, 2017 Units:  English    Metric   Both
« Previous Day
Next Day »
Daily Weekly Monthly Yearly Custom
  High: Low: Average:
Temperature: 79.7 °F 63.6 °F 69.5 °F
Dew Point: 51.4 °F 40.0 °F 46.2 °F
Humidity: 57 % 30 % 44 %
Wind Speed: 13.0 mph 0.0 mph 1.7 mph
Wind Gust: 14.0 mph - -
Wind:- - ESE
Pressure: 30.08 in 29.90 in -
Precipitation: 0.00 in    
Historical Graphs
 
 
Tabular Data for October 25, 2017
Time Temperature Dew Point Pressure Wind Wind Speed Wind Gust Humidity Rainfall Rate (Hourly) solar
00:00 67.9 °F 45.8 °F 30.08 in ESE 5.0 mph 11.0 mph 45 % 0.00 in 0.00 W/m2
00:05 67.8 °F 45.1 °F 30.08 in East 6.0 mph 11.0 mph 44 % 0.00 in 0.00 W/m2
00:10 67.7 °F 45.0 °F 30.08 in ESE 6.0 mph 9.0 mph 44 % 0.00 in 0.00 W/m2
00:15 67.6 °F 44.9 °F 30.08 in ESE 2.0 mph 9.0 mph 44 % 0.00 in 0.00 W/m2
00:20 67.5 °F 44.8 °F 30.08 in Calm   9.0 mph 44 % 0.00 in 0.00 W/m2
00:25 67.4 °F 45.3 °F 30.08 in East 2.0 mph 11.0 mph 45 % 0.00 in 0.00 W/m2
00:30 67.3 °F 44.7 °F 30.07 in Calm   7.0 mph 44 % 0.00 in 0.00 W/m2
00:35 67.2 °F 45.2 °F 30.08 in Calm   8.0 mph 45 % 0.00 in 0.00 W/m2
00:40 67.1 °F 44.5 °F 30.08 in Calm   6.0 mph 44 % 0.00 in 0.00 W/m2
00:45 67.1 °F 44.5 °F 30.08 in East 1.0 mph 7.0 mph 44 % 0.00 in 0.00 W/m2
00:50 67.0 °F 44.4 °F 30.07 in East 8.0 mph 9.0 mph 44 % 0.00 in 0.00 W/m2
00:55 66.9 °F 44.3 °F 30.07 in ESE 2.0 mph 8.0 mph 44 % 0.00 in 0.00 W/m2
01:00 66.8 °F 44.2 °F 30.07 in Calm   9.0 mph 44 % 0.00 in 0.00 W/m2
01:05 66.8 °F 44.2 °F 30.07 in East 4.0 mph 8.0 mph 44 % 0.00 in 0.00 W/m2
01:10 66.7 °F 43.5 °F 30.07 in ESE 6.0 mph 6.0 mph 43 % 0.00 in 0.00 W/m2
01:15 66.7 °F 43.5 °F 30.07 in ESE 1.0 mph 4.0 mph 43 % 0.00 in 0.00 W/m2
01:21 66.7 °F 43.5 °F 30.07 in East 1.0 mph 4.0 mph 43 % 0.00 in 0.00 W/m2
01:26 66.6 °F 42.8 °F 30.07 in East 5.0 mph 5.0 mph 42 % 0.00 in 0.00 W/m2
01:31 66.7 °F 43.5 °F 30.07 in East 2.0 mph 5.0 mph 43 % 0.00 in 0.00 W/m2
01:36 66.7 °F 44.1 °F 30.07 in Calm   4.0 mph 44 % 0.00 in 0.00 W/m2
01:41 66.6 °F 43.4 °F 30.07 in ESE 2.0 mph 7.0 mph 43 % 0.00 in 0.00 W/m2
01:46 66.5 °F 42.7 °F 30.07 in ESE 1.0 mph 8.0 mph 42 % 0.00 in 0.00 W/m2
01:51 66.5 °F 42.1 °F 30.07 in ESE 7.0 mph 7.0 mph 41 % 0.00 in 0.00 W/m2
01:56 66.5 °F 42.7 °F 30.07 in East 2.0 mph 4.0 mph 42 % 0.00 in 0.00 W/m2
02:01 66.5 °F 42.7 °F 30.07 in East 1.0 mph 5.0 mph 42 % 0.00 in 0.00 W/m2
02:06 66.5 °F 43.3 °F 30.07 in Calm   6.0 mph 43 % 0.00 in 0.00 W/m2
02:11 66.5 °F 43.3 °F 30.07 in East 4.0 mph 4.0 mph 43 % 0.00 in 0.00 W/m2
02:16 66.4 °F 43.2 °F 30.07 in East 2.0 mph 7.0 mph 43 % 0.00 in 0.00 W/m2
02:21 66.4 °F 43.8 °F 30.06 in ESE 6.0 mph 8.0 mph 44 % 0.00 in 0.00 W/m2
02:26 66.3 °F 43.2 °F 30.06 in East 1.0 mph 7.0 mph 43 % 0.00 in 0.00 W/m2
02:31 66.2 °F 43.1 °F 30.06 in ESE 7.0 mph 9.0 mph 43 % 0.00 in 0.00 W/m2
02:36 66.1 °F 43.0 °F 30.06 in Calm   9.0 mph 43 % 0.00 in 0.00 W/m2
02:41 66.0 °F 42.3 °F 30.06 in East 1.0 mph 12.0 mph 42 % 0.00 in 0.00 W/m2
02:46 66.0 °F 42.3 °F 30.06 in SE 5.0 mph 12.0 mph 42 % 0.00 in 0.00 W/m2
02:51 65.9 °F 42.8 °F 30.06 in ESE 4.0 mph 12.0 mph 43 % 0.00 in 0.00 W/m2
02:56 65.9 °F 42.8 °F 30.06 in ESE 6.0 mph 13.0 mph 43 % 0.00 in 0.00 W/m2
03:01 65.9 °F 42.2 °F 30.06 in ESE 6.0 mph 13.0 mph 42 % 0.00 in 0.00 W/m2
03:06 65.9 °F 42.2 °F 30.06 in ESE 5.0 mph 11.0 mph 42 % 0.00 in 0.00 W/m2
03:12 65.8 °F 41.5 °F 30.05 in East 1.0 mph 8.0 mph 41 % 0.00 in 0.00 W/m2
03:17 65.8 °F 41.5 °F 30.05 in ESE 7.0 mph 12.0 mph 41 % 0.00 in 0.00 W/m2
03:22 65.8 °F 42.7 °F 30.05 in ESE 1.0 mph 12.0 mph 43 % 0.00 in 0.00 W/m2
03:27 65.7 °F 42.0 °F 30.05 in East 1.0 mph 14.0 mph 42 % 0.00 in 0.00 W/m2
03:32 65.7 °F 42.0 °F 30.04 in ESE 5.0 mph 12.0 mph 42 % 0.00 in 0.00 W/m2
03:37 65.7 °F 42.0 °F 30.04 in Calm   9.0 mph 42 % 0.00 in 0.00 W/m2
03:42 65.7 °F 41.4 °F 30.04 in ESE 2.0 mph 8.0 mph 41 % 0.00 in 0.00 W/m2
03:47 65.7 °F 41.4 °F 30.04 in East 1.0 mph 11.0 mph 41 % 0.00 in 0.00 W/m2
03:52 65.7 °F 41.4 °F 30.04 in ESE 2.0 mph 12.0 mph 41 % 0.00 in 0.00 W/m2
03:57 65.7 °F 42.0 °F 30.04 in East 1.0 mph 9.0 mph 42 % 0.00 in 0.00 W/m2
04:02 65.6 °F 41.3 °F 30.03 in SE 12.0 mph 12.0 mph 41 % 0.00 in 0.00 W/m2
04:07 65.6 °F 41.3 °F 30.03 in East 2.0 mph 11.0 mph 41 % 0.00 in 0.00 W/m2
04:12 65.5 °F 41.2 °F 30.03 in ESE 4.0 mph 12.0 mph 41 % 0.00 in 0.00 W/m2
04:17 65.5 °F 41.2 °F 30.03 in East 1.0 mph 11.0 mph 41 % 0.00 in 0.00 W/m2
04:22 65.4 °F 41.1 °F 30.03 in East 2.0 mph 9.0 mph 41 % 0.00 in 0.00 W/m2
04:27 65.4 °F 42.3 °F 30.03 in ESE 5.0 mph 12.0 mph 43 % 0.00 in 0.00 W/m2
04:32 65.4 °F 41.7 °F 30.03 in East 7.0 mph 9.0 mph 42 % 0.00 in 0.00 W/m2
04:37 65.3 °F 41.0 °F 30.02 in East 1.0 mph 9.0 mph 41 % 0.00 in 0.00 W/m2
04:42 65.3 °F 41.6 °F 30.03 in East 1.0 mph 8.0 mph 42 % 0.00 in 0.00 W/m2
04:47 65.2 °F 41.5 °F 30.03 in Calm   9.0 mph 42 % 0.00 in 0.00 W/m2
04:52 65.2 °F 41.5 °F 30.03 in ESE 7.0 mph 12.0 mph 42 % 0.00 in 0.00 W/m2
04:57 65.2 °F 41.5 °F 30.03 in East 5.0 mph 14.0 mph 42 % 0.00 in 0.00 W/m2
05:02 65.2 °F 41.5 °F 30.03 in ESE 1.0 mph 8.0 mph 42 % 0.00 in 0.00 W/m2
05:07 65.1 °F 40.2 °F 30.03 in ESE 4.0 mph 8.0 mph 40 % 0.00 in 0.00 W/m2
05:12 65.1 °F 40.8 °F 30.03 in ESE 7.0 mph 8.0 mph 41 % 0.00 in 0.00 W/m2
05:18 65.0 °F 40.8 °F 30.03 in East 2.0 mph 13.0 mph 41 % 0.00 in 0.00 W/m2
05:23 65.0 °F 40.8 °F 30.03 in East 1.0 mph 11.0 mph 41 % 0.00 in 0.00 W/m2
05:28 64.9 °F 40.0 °F 30.03 in ESE 2.0 mph 9.0 mph 40 % 0.00 in 0.00 W/m2
05:33 64.9 °F 40.7 °F 30.03 in East 7.0 mph 8.0 mph 41 % 0.00 in 0.00 W/m2
05:38 64.9 °F 40.7 °F 30.03 in East 6.0 mph 9.0 mph 41 % 0.00 in 0.00 W/m2
05:43 64.8 °F 41.2 °F 30.03 in ESE 5.0 mph 9.0 mph 42 % 0.00 in 0.00 W/m2
05:48 64.8 °F 41.8 °F 30.03 in East 7.0 mph 7.0 mph 43 % 0.00 in 0.00 W/m2
05:53 64.7 °F 41.1 °F 30.03 in Calm   11.0 mph 42 % 0.00 in 0.00 W/m2
05:58 64.6 °F 41.6 °F 30.04 in Calm   11.0 mph 43 % 0.00 in 0.00 W/m2
06:03 64.5 °F 41.5 °F 30.04 in ESE 2.0 mph 9.0 mph 43 % 0.00 in 0.00 W/m2
06:08 64.4 °F 41.4 °F 30.03 in ESE 5.0 mph 11.0 mph 43 % 0.00 in 0.00 W/m2
06:13 64.3 °F 41.3 °F 30.03 in Calm   12.0 mph 43 % 0.00 in 0.00 W/m2
06:18 64.2 °F 41.3 °F 30.03 in East 1.0 mph 12.0 mph 43 % 0.00 in 0.00 W/m2
06:23 64.2 °F 41.3 °F 30.03 in East 11.0 mph 11.0 mph 43 % 0.00 in 0.00 W/m2
06:30 64.1 °F 41.2 °F 30.03 in ESE 2.0 mph 11.0 mph 43 % 0.00 in 0.00 W/m2
06:35 64.1 °F 41.2 °F 30.03 in ESE 7.0 mph 11.0 mph 43 % 0.00 in 0.00 W/m2
06:40 64.0 °F 41.1 °F 30.02 in East 6.0 mph 13.0 mph 43 % 0.00 in 0.00 W/m2
06:45 63.9 °F 41.0 °F 30.02 in East 3.0 mph 10.0 mph 43 % 0.00 in 0.00 W/m2
06:50 63.9 °F 41.6 °F 30.03 in East 5.0 mph 12.0 mph 44 % 0.00 in 0.00 W/m2
06:55 63.8 °F 41.5 °F 30.02 in ESE 5.0 mph 12.0 mph 44 % 0.00 in 0.00 W/m2
07:00 63.7 °F 41.4 °F 30.02 in East 7.0 mph 11.0 mph 44 % 0.00 in 0.00 W/m2
07:05 63.7 °F 40.8 °F 30.02 in Calm   11.0 mph 43 % 0.00 in 0.00 W/m2
07:10 63.6 °F 40.7 °F 30.02 in Calm   12.0 mph 43 % 0.00 in 0.00 W/m2
07:15 63.6 °F 41.3 °F 30.02 in East 11.0 mph 14.0 mph 44 % 0.00 in 0.00 W/m2
07:20 63.6 °F 41.3 °F 30.02 in Calm   11.0 mph 44 % 0.00 in 5.00 W/m2
07:25 63.6 °F 41.9 °F 30.02 in East 13.0 mph 13.0 mph 45 % 0.00 in 7.00 W/m2
07:30 63.6 °F 41.9 °F 30.02 in East 2.0 mph 11.0 mph 45 % 0.00 in 9.00 W/m2
07:35 63.6 °F 41.9 °F 30.02 in Calm   11.0 mph 45 % 0.00 in 12.00 W/m2
07:40 63.6 °F 42.5 °F 30.02 in Calm   9.0 mph 46 % 0.00 in 14.00 W/m2
07:45 63.6 °F 42.5 °F 30.02 in East 5.0 mph 12.0 mph 46 % 0.00 in 16.00 W/m2
07:50 63.6 °F 42.5 °F 30.02 in Calm   9.0 mph 46 % 0.00 in 25.00 W/m2
07:55 63.6 °F 41.9 °F 30.02 in East 6.0 mph 11.0 mph 45 % 0.00 in 35.00 W/m2
08:00 63.6 °F 42.5 °F 30.03 in East 11.0 mph 12.0 mph 46 % 0.00 in 47.00 W/m2
08:05 63.6 °F 42.5 °F 30.03 in East 4.0 mph 13.0 mph 46 % 0.00 in 63.00 W/m2
08:08 63.6 °F 42.5 °F 30.03 in ESE 8.0 mph 11.0 mph 46 % 0.00 in 72.00 W/m2
08:13 63.6 °F 42.5 °F 30.03 in Calm   8.0 mph 46 % 0.00 in 88.00 W/m2
08:18 63.7 °F 42.5 °F 30.03 in East 11.0 mph 11.0 mph 46 % 0.00 in 107.00 W/m2
08:23 63.6 °F 43.0 °F 30.03 in ESE 5.0 mph 8.0 mph 47 % 0.00 in 120.00 W/m2
08:28 63.6 °F 42.5 °F 30.03 in ESE 5.0 mph 12.0 mph 46 % 0.00 in 141.00 W/m2
08:33 63.7 °F 43.1 °F 30.03 in ESE 4.0 mph 12.0 mph 47 % 0.00 in 158.00 W/m2
08:38 63.8 °F 43.2 °F 30.03 in Calm   8.0 mph 47 % 0.00 in 181.00 W/m2
08:43 63.8 °F 43.2 °F 30.03 in ESE 6.0 mph 8.0 mph 47 % 0.00 in 202.00 W/m2
08:48 63.9 °F 43.3 °F 30.04 in Calm   11.0 mph 47 % 0.00 in 218.00 W/m2
08:53 64.0 °F 44.5 °F 30.04 in East 4.0 mph 9.0 mph 49 % 0.00 in 243.00 W/m2
08:58 64.1 °F 44.0 °F 30.03 in ESE 7.0 mph 8.0 mph 48 % 0.00 in 264.00 W/m2
09:03 64.2 °F 44.7 °F 30.04 in East 8.0 mph 12.0 mph 49 % 0.00 in 279.00 W/m2
09:08 64.4 °F 44.8 °F 30.04 in ESE 5.0 mph 9.0 mph 49 % 0.00 in 301.00 W/m2
09:13 64.5 °F 44.9 °F 30.04 in ESE 2.0 mph 8.0 mph 49 % 0.00 in 315.00 W/m2
09:18 64.7 °F 44.6 °F 30.04 in ESE 1.0 mph 8.0 mph 48 % 0.00 in 327.00 W/m2
09:23 64.9 °F 45.3 °F 30.04 in Calm   9.0 mph 49 % 0.00 in 345.00 W/m2
09:28 65.1 °F 46.0 °F 30.03 in ESE 4.0 mph 11.0 mph 50 % 0.00 in 359.00 W/m2
09:33 65.3 °F 45.1 °F 30.04 in ESE 2.0 mph 9.0 mph 48 % 0.00 in 373.00 W/m2
09:38 65.6 °F 45.4 °F 30.04 in Calm   9.0 mph 48 % 0.00 in 387.00 W/m2
09:43 65.9 °F 45.1 °F 30.04 in ESE 2.0 mph 9.0 mph 47 % 0.00 in 401.00 W/m2
09:48 66.2 °F 46.0 °F 30.04 in Calm   6.0 mph 48 % 0.00 in 411.00 W/m2
09:53 66.5 °F 46.8 °F 30.03 in Calm   7.0 mph 49 % 0.00 in 425.00 W/m2
09:58 67.0 °F 47.2 °F 30.03 in Calm   6.0 mph 49 % 0.00 in 436.00 W/m2
10:04 67.4 °F 47.0 °F 30.03 in ESE 1.0 mph 2.0 mph 48 % 0.00 in 450.00 W/m2
10:09 67.8 °F 48.5 °F 30.03 in Calm   2.0 mph 50 % 0.00 in 462.00 W/m2
10:14 68.1 °F 48.8 °F 30.03 in Calm     50 % 0.00 in 475.00 W/m2
10:19 68.5 °F 48.6 °F 30.03 in Calm   2.0 mph 49 % 0.00 in 487.00 W/m2
10:24 68.9 °F 49.5 °F 30.03 in Calm   4.0 mph 50 % 0.00 in 497.00 W/m2
10:29 69.2 °F 48.1 °F 30.03 in Calm   2.0 mph 47 % 0.00 in 508.00 W/m2
10:34 69.6 °F 47.3 °F 30.03 in Calm   2.0 mph 45 % 0.00 in 519.00 W/m2
10:39 70.1 °F 48.4 °F 30.03 in ESE 1.0 mph 2.0 mph 46 % 0.00 in 529.00 W/m2
10:44 70.5 °F 45.7 °F 30.03 in Calm   4.0 mph 41 % 0.00 in 536.00 W/m2
10:49 70.9 °F 45.4 °F 30.02 in Calm   4.0 mph 40 % 0.00 in 547.00 W/m2
10:54 71.3 °F 47.0 °F 30.02 in Calm   7.0 mph 42 % 0.00 in 557.00 W/m2
10:59 71.8 °F 46.2 °F 30.02 in Calm   2.0 mph 40 % 0.00 in 566.00 W/m2
11:04 72.2 °F 46.6 °F 30.02 in Calm   4.0 mph 40 % 0.00 in 573.00 W/m2
11:09 72.6 °F 44.1 °F 30.02 in Calm     36 % 0.00 in 582.00 W/m2
11:14 73.0 °F 45.9 °F 30.02 in Calm     38 % 0.00 in 589.00 W/m2
11:19 73.3 °F 45.5 °F 30.02 in Calm   4.0 mph 37 % 0.00 in 598.00 W/m2
11:24 73.9 °F 46.0 °F 30.02 in Calm     37 % 0.00 in 603.00 W/m2
11:29 74.5 °F 45.8 °F 30.02 in Calm   1.0 mph 36 % 0.00 in 610.00 W/m2
11:34 75.0 °F 45.5 °F 30.01 in Calm   2.0 mph 35 % 0.00 in 615.00 W/m2
11:39 75.5 °F 46.0 °F 30.01 in Calm   4.0 mph 35 % 0.00 in 622.00 W/m2
11:44 75.9 °F 46.3 °F 30.01 in Calm   2.0 mph 35 % 0.00 in 626.00 W/m2
11:49 76.4 °F 46.8 °F 30.01 in Calm   1.0 mph 35 % 0.00 in 631.00 W/m2
11:54 76.8 °F 48.6 °F 30.01 in Calm     37 % 0.00 in 636.00 W/m2
11:59 77.0 °F 48.8 °F 30.01 in Calm   4.0 mph 37 % 0.00 in 638.00 W/m2
12:04 77.1 °F 47.4 °F 30.01 in Calm   6.0 mph 35 % 0.00 in 642.00 W/m2
12:09 77.2 °F 48.2 °F 30.00 in ESE 4.0 mph 4.0 mph 36 % 0.00 in 645.00 W/m2
12:14 77.3 °F 49.0 °F 30.00 in Calm   5.0 mph 37 % 0.00 in 649.00 W/m2
12:19 77.3 °F 48.3 °F 30.00 in Calm   4.0 mph 36 % 0.00 in 649.00 W/m2
12:24 77.3 °F 48.3 °F 30.00 in Calm   5.0 mph 36 % 0.00 in 650.00 W/m2
12:29 77.4 °F 47.6 °F 30.00 in Calm   6.0 mph 35 % 0.00 in 652.00 W/m2
12:34 77.5 °F 47.0 °F 30.00 in Calm   5.0 mph 34 % 0.00 in 652.00 W/m2
12:40 77.5 °F 47.7 °F 29.99 in Calm   4.0 mph 35 % 0.00 in 652.00 W/m2
12:45 77.5 °F 46.2 °F 29.99 in Calm   3.0 mph 33 % 0.00 in 652.00 W/m2
12:50 77.6 °F 46.2 °F 29.99 in Calm   4.0 mph 33 % 0.00 in 652.00 W/m2
12:55 77.7 °F 46.3 °F 29.99 in Calm   5.0 mph 33 % 0.00 in 652.00 W/m2
13:00 77.8 °F 47.2 °F 29.98 in Calm   5.0 mph 34 % 0.00 in 650.00 W/m2
13:05 77.9 °F 45.7 °F 29.98 in Calm   5.0 mph 32 % 0.00 in 652.00 W/m2
13:10 78.1 °F 45.9 °F 29.98 in NW 3.0 mph 3.0 mph 32 % 0.00 in 649.00 W/m2
13:15 78.4 °F 46.1 °F 29.98 in Calm   5.0 mph 32 % 0.00 in 645.00 W/m2
13:20 78.6 °F 46.3 °F 29.97 in Calm   3.0 mph 32 % 0.00 in 642.00 W/m2
13:25 78.7 °F 47.2 °F 29.97 in Calm   2.0 mph 33 % 0.00 in 640.00 W/m2
13:30 78.7 °F 46.4 °F 29.97 in Calm   3.0 mph 32 % 0.00 in 636.00 W/m2
13:35 78.8 °F 47.3 °F 29.97 in West 3.0 mph 6.0 mph 33 % 0.00 in 631.00 W/m2
13:40 78.9 °F 47.4 °F 29.96 in Calm   3.0 mph 33 % 0.00 in 628.00 W/m2
13:45 79.1 °F 45.9 °F 29.96 in Calm   3.0 mph 31 % 0.00 in 622.00 W/m2
13:50 79.2 °F 45.1 °F 29.96 in Calm   7.0 mph 30 % 0.00 in 619.00 W/m2
13:55 79.3 °F 46.9 °F 29.95 in Calm   2.0 mph 32 % 0.00 in 613.00 W/m2
14:00 79.4 °F 46.2 °F 29.95 in Calm   2.0 mph 31 % 0.00 in 605.00 W/m2
14:05 79.4 °F 46.2 °F 29.95 in Calm   4.0 mph 31 % 0.00 in 599.00 W/m2
14:10 79.5 °F 46.2 °F 29.95 in West 2.0 mph 5.0 mph 31 % 0.00 in 592.00 W/m2
14:15 79.6 °F 47.2 °F 29.95 in Calm   2.0 mph 32 % 0.00 in 585.00 W/m2
14:20 79.6 °F 46.3 °F 29.95 in Calm   7.0 mph 31 % 0.00 in 577.00 W/m2
14:25 79.7 °F 47.3 °F 29.95 in NW 2.0 mph 6.0 mph 32 % 0.00 in 568.00 W/m2
14:30 79.7 °F 48.1 °F 29.95 in WNW 2.0 mph 5.0 mph 33 % 0.00 in 557.00 W/m2
14:35 79.7 °F 48.1 °F 29.95 in Calm   6.0 mph 33 % 0.00 in 550.00 W/m2
14:40 79.6 °F 48.8 °F 29.95 in Calm   5.0 mph 34 % 0.00 in 543.00 W/m2
14:45 79.5 °F 48.7 °F 29.95 in Calm   8.0 mph 34 % 0.00 in 533.00 W/m2
14:50 79.4 °F 48.6 °F 29.95 in NW 4.0 mph 8.0 mph 34 % 0.00 in 524.00 W/m2
14:55 79.5 °F 47.9 °F 29.94 in NW 2.0 mph 7.0 mph 33 % 0.00 in 513.00 W/m2
15:00 79.5 °F 48.7 °F 29.94 in Calm   5.0 mph 34 % 0.00 in 501.00 W/m2
15:05 79.5 °F 49.5 °F 29.94 in NW 3.0 mph 3.0 mph 35 % 0.00 in 489.00 W/m2
15:10 79.5 °F 50.2 °F 29.94 in Calm   4.0 mph 36 % 0.00 in 480.00 W/m2
15:15 79.4 °F 50.9 °F 29.93 in Calm   4.0 mph 37 % 0.00 in 471.00 W/m2
15:20 79.3 °F 49.3 °F 29.93 in West 6.0 mph 9.0 mph 35 % 0.00 in 459.00 W/m2
15:25 79.2 °F 50.0 °F 29.93 in Calm   7.0 mph 36 % 0.00 in 443.00 W/m2
15:30 79.1 °F 49.9 °F 29.93 in WNW 2.0 mph 7.0 mph 36 % 0.00 in 431.00 W/m2
15:35 78.9 °F 49.7 °F 29.94 in Calm   3.0 mph 36 % 0.00 in 422.00 W/m2
15:40 78.8 °F 50.4 °F 29.94 in NW 1.0 mph 4.0 mph 37 % 0.00 in 408.00 W/m2
15:46 78.6 °F 49.4 °F 29.93 in NW 1.0 mph 1.0 mph 36 % 0.00 in 394.00 W/m2
15:51 78.5 °F 50.1 °F 29.94 in Calm     37 % 0.00 in 381.00 W/m2
15:56 78.4 °F 50.0 °F 29.94 in WNW 1.0 mph 1.0 mph 37 % 0.00 in 369.00 W/m2
16:01 78.3 °F 49.9 °F 29.93 in Calm     37 % 0.00 in 353.00 W/m2
16:06 78.2 °F 50.5 °F 29.93 in Calm     38 % 0.00 in 341.00 W/m2
16:11 78.0 °F 50.4 °F 29.93 in West 3.0 mph 3.0 mph 38 % 0.00 in 327.00 W/m2
16:16 77.9 °F 49.6 °F 29.93 in Calm     37 % 0.00 in 313.00 W/m2
16:21 77.8 °F 49.5 °F 29.93 in Calm     37 % 0.00 in 297.00 W/m2
16:26 77.6 °F 50.0 °F 29.93 in Calm     38 % 0.00 in 283.00 W/m2
16:31 77.5 °F 49.9 °F 29.92 in Calm   1.0 mph 38 % 0.00 in 267.00 W/m2
16:36 77.4 °F 50.5 °F 29.92 in Calm     39 % 0.00 in 253.00 W/m2
16:41 77.3 °F 49.7 °F 29.92 in Calm     38 % 0.00 in 241.00 W/m2
16:46 77.2 °F 49.7 °F 29.92 in Calm     38 % 0.00 in 223.00 W/m2
16:51 77.1 °F 50.9 °F 29.92 in Calm     40 % 0.00 in 206.00 W/m2
16:56 76.9 °F 50.8 °F 29.92 in Calm     40 % 0.00 in 185.00 W/m2
17:01 76.8 °F 50.7 °F 29.92 in Calm     40 % 0.00 in 167.00 W/m2
17:06 76.6 °F 51.2 °F 29.92 in Calm     41 % 0.00 in 146.00 W/m2
17:11 76.3 °F 49.5 °F 29.92 in Calm   1.0 mph 39 % 0.00 in 127.00 W/m2
17:16 76.1 °F 51.4 °F 29.92 in Calm     42 % 0.00 in 107.00 W/m2
17:21 75.9 °F 50.5 °F 29.92 in Calm     41 % 0.00 in 90.00 W/m2
17:26 75.7 °F 51.0 °F 29.92 in Calm     42 % 0.00 in 76.00 W/m2
17:31 75.5 °F 50.8 °F 29.92 in Calm     42 % 0.00 in 58.00 W/m2
17:36 75.2 °F 50.6 °F 29.92 in Calm     42 % 0.00 in 46.00 W/m2
17:41 74.8 °F 50.2 °F 29.92 in Calm     42 % 0.00 in 33.00 W/m2
17:46 74.2 °F 50.9 °F 29.92 in Calm     44 % 0.00 in 23.00 W/m2
17:51 73.7 °F 50.5 °F 29.92 in Calm     44 % 0.00 in 16.00 W/m2
17:56 73.1 °F 50.5 °F 29.92 in Calm     45 % 0.00 in 12.00 W/m2
18:01 72.6 °F 50.7 °F 29.92 in Calm     46 % 0.00 in 11.00 W/m2
18:06 72.2 °F 49.7 °F 29.92 in Calm     45 % 0.00 in 9.00 W/m2
18:11 71.8 °F 49.9 °F 29.92 in Calm     46 % 0.00 in 7.00 W/m2
18:16 71.5 °F 50.2 °F 29.92 in Calm     47 % 0.00 in 5.00 W/m2
18:22 71.0 °F 49.8 °F 29.92 in Calm     47 % 0.00 in 0.00 W/m2
18:27 70.6 °F 50.5 °F 29.92 in Calm     49 % 0.00 in 0.00 W/m2
18:32 70.1 °F 50.1 °F 29.92 in Calm     49 % 0.00 in 0.00 W/m2
18:37 69.7 °F 49.7 °F 29.92 in Calm     49 % 0.00 in 0.00 W/m2
18:42 69.3 °F 49.3 °F 29.92 in Calm     49 % 0.00 in 0.00 W/m2
18:47 69.0 °F 49.1 °F 29.92 in Calm     49 % 0.00 in 0.00 W/m2
18:52 68.7 °F 49.3 °F 29.92 in Calm     50 % 0.00 in 0.00 W/m2
18:57 68.4 °F 48.5 °F 29.92 in Calm     49 % 0.00 in 0.00 W/m2
19:02 68.3 °F 48.4 °F 29.91 in Calm     49 % 0.00 in 0.00 W/m2
19:07 68.1 °F 48.2 °F 29.91 in Calm     49 % 0.00 in 0.00 W/m2
19:12 67.9 °F 48.1 °F 29.91 in Calm     49 % 0.00 in 0.00 W/m2
19:17 67.8 °F 48.5 °F 29.91 in Calm     50 % 0.00 in 0.00 W/m2
19:22 67.7 °F 48.4 °F 29.91 in Calm     50 % 0.00 in 0.00 W/m2
19:27 67.6 °F 48.8 °F 29.91 in Calm     51 % 0.00 in 0.00 W/m2
19:32 67.3 °F 48.6 °F 29.91 in Calm     51 % 0.00 in 0.00 W/m2
19:37 67.0 °F 48.3 °F 29.91 in Calm     51 % 0.00 in 0.00 W/m2
19:42 66.9 °F 48.2 °F 29.91 in Calm     51 % 0.00 in 0.00 W/m2
19:47 66.8 °F 48.1 °F 29.91 in Calm     51 % 0.00 in 0.00 W/m2
19:52 66.7 °F 48.0 °F 29.91 in Calm     51 % 0.00 in 0.00 W/m2
19:57 66.7 °F 48.0 °F 29.91 in Calm     51 % 0.00 in 0.00 W/m2
20:02 66.7 °F 48.5 °F 29.91 in Calm     52 % 0.00 in 0.00 W/m2
20:07 66.6 °F 47.9 °F 29.91 in Calm     51 % 0.00 in 0.00 W/m2
20:12 66.7 °F 48.5 °F 29.91 in Calm     52 % 0.00 in 0.00 W/m2
20:17 66.7 °F 48.5 °F 29.91 in Calm   3.0 mph 52 % 0.00 in 0.00 W/m2
20:22 66.6 °F 48.4 °F 29.91 in Calm   3.0 mph 52 % 0.00 in 0.00 W/m2
20:27 66.5 °F 48.9 °F 29.91 in Calm   2.0 mph 53 % 0.00 in 0.00 W/m2
20:32 66.5 °F 48.9 °F 29.91 in Calm   6.0 mph 53 % 0.00 in 0.00 W/m2
20:37 66.5 °F 49.4 °F 29.90 in Calm   2.0 mph 54 % 0.00 in 0.00 W/m2
20:42 66.5 °F 49.8 °F 29.90 in Calm   1.0 mph 55 % 0.00 in 0.00 W/m2
20:47 66.5 °F 49.8 °F 29.90 in Calm   3.0 mph 55 % 0.00 in 0.00 W/m2
20:52 66.5 °F 49.8 °F 29.91 in Calm   1.0 mph 55 % 0.00 in 0.00 W/m2
20:57 66.5 °F 49.8 °F 29.91 in ENE 2.0 mph 5.0 mph 55 % 0.00 in 0.00 W/m2
21:02 66.5 °F 49.8 °F 29.91 in East 3.0 mph 5.0 mph 55 % 0.00 in 0.00 W/m2
21:07 66.5 °F 49.8 °F 29.91 in Calm   1.0 mph 55 % 0.00 in 0.00 W/m2
21:13 66.5 °F 49.8 °F 29.90 in Calm   6.0 mph 55 % 0.00 in 0.00 W/m2
21:18 66.6 °F 50.4 °F 29.91 in East 2.0 mph 6.0 mph 56 % 0.00 in 0.00 W/m2
21:23 66.5 °F 50.3 °F 29.91 in East 1.0 mph 6.0 mph 56 % 0.00 in 0.00 W/m2
21:28 66.5 °F 50.3 °F 29.90 in Calm   5.0 mph 56 % 0.00 in 0.00 W/m2
21:35 66.4 °F 50.2 °F 29.90 in East 4.0 mph 6.0 mph 56 % 0.00 in 0.00 W/m2
21:40 66.4 °F 50.7 °F 29.90 in East 4.0 mph 8.0 mph 57 % 0.00 in 0.00 W/m2
21:45 66.4 °F 50.2 °F 29.91 in Calm   8.0 mph 56 % 0.00 in 0.00 W/m2
21:50 66.3 °F 50.2 °F 29.91 in Calm   6.0 mph 56 % 0.00 in 0.00 W/m2
21:55 66.3 °F 50.2 °F 29.91 in East 6.0 mph 7.0 mph 56 % 0.00 in 0.00 W/m2
22:00 66.3 °F 50.6 °F 29.91 in Calm   7.0 mph 57 % 0.00 in 0.00 W/m2
22:05 66.3 °F 50.2 °F 29.91 in East 5.0 mph 7.0 mph 56 % 0.00 in 0.00 W/m2
22:10 66.3 °F 50.2 °F 29.91 in Calm   6.0 mph 56 % 0.00 in 0.00 W/m2
22:15 66.3 °F 50.2 °F 29.91 in Calm   6.0 mph 56 % 0.00 in 0.00 W/m2
22:20 66.3 °F 50.2 °F 29.91 in Calm   6.0 mph 56 % 0.00 in 0.00 W/m2
22:25 66.3 °F 50.2 °F 29.91 in East 4.0 mph 6.0 mph 56 % 0.00 in 0.00 W/m2
22:30 66.2 °F 50.1 °F 29.91 in Calm   7.0 mph 56 % 0.00 in 0.00 W/m2
22:35 66.2 °F 50.1 °F 29.91 in Calm   7.0 mph 56 % 0.00 in 0.00 W/m2
22:40 66.2 °F 50.1 °F 29.91 in ESE 1.0 mph 8.0 mph 56 % 0.00 in 0.00 W/m2
22:45 66.1 °F 50.0 °F 29.91 in East 5.0 mph 7.0 mph 56 % 0.00 in 0.00 W/m2
22:50 66.1 °F 50.0 °F 29.91 in East 5.0 mph 8.0 mph 56 % 0.00 in 0.00 W/m2
22:55 66.1 °F 50.0 °F 29.91 in ESE 7.0 mph 7.0 mph 56 % 0.00 in 0.00 W/m2
23:00 66.0 °F 49.9 °F 29.91 in Calm     56 % 0.00 in 0.00 W/m2
23:05 66.0 °F 49.9 °F 29.90 in ESE 1.0 mph 1.0 mph 56 % 0.00 in 0.00 W/m2
23:11 66.0 °F 49.9 °F 29.90 in ESE 6.0 mph 8.0 mph 56 % 0.00 in 0.00 W/m2
23:16 65.9 °F 49.8 °F 29.90 in ESE 2.0 mph 2.0 mph 56 % 0.00 in 0.00 W/m2
23:21 65.9 °F 49.8 °F 29.90 in Calm     56 % 0.00 in 0.00 W/m2
23:26 65.8 °F 49.2 °F 29.91 in Calm   6.0 mph 55 % 0.00 in 0.00 W/m2
23:31 65.8 °F 49.7 °F 29.91 in Calm   5.0 mph 56 % 0.00 in 0.00 W/m2
23:36 65.7 °F 49.1 °F 29.91 in Calm   5.0 mph 55 % 0.00 in 0.00 W/m2
23:41 65.7 °F 49.1 °F 29.91 in Calm     55 % 0.00 in 0.00 W/m2
23:46 65.6 °F 49.0 °F 29.90 in Calm     55 % 0.00 in 0.00 W/m2
23:51 65.6 °F 49.5 °F 29.90 in Calm     56 % 0.00 in 0.00 W/m2
23:56 65.5 °F 48.9 °F 29.90 in Calm     55 % 0.00 in 0.00 W/m2
23:57 65.5 °F 48.9 °F 29.90 in Calm     55 % 0.00 in 0.00 W/m2
Juneau County Weather
Compliments of Weather Underground - 4.5 mb
 WU-history PHP script courtesy of   Juneau County Weather.
powered by Cumulus v1.9.3 (1059)
Ambient Weather VWS v14.00
Top Contact Website Map Copyright © 2007 - 2018 Foresthillweather.com Never base important decisions on this or any weather information obtained from the Internet